Home > Weather > Rockford > Past weeks

Flag for USA Weather for the Past 2 Weeks in Rockford, Illinois, USA

Now
48 °F

Overcast.


Feels Like: 47 °F
Forecast: 43 / 51 °F
Wind: 3 mph from East

Location: Greater Rockford Airport

Current Time: Apr 29, 2016 at 8:35:12 PM

Latest Report: Apr 29, 2016 at 7:54 PM


Visibility: 10 mi

Pressure: 30.16 "Hg

Humidity: 71%

Dew Point: 39 °F

Location of RockfordLocation

Historic Weather in Rockford — Graph

°F

Rockford Temperature Yesterday

Maximum temperature yesterday: 52 °F (at 2:54 PM)
Minimum temperature yesterday: 43 °F (at 8:54 PM)
Average temperature yesterday: 46 °F

High & Low Weather Summary for the Past Weeks

 TemperatureHumidityPressure
High83 °F (Apr 18, 3:54 PM)96% (Apr 21, 2:01 AM)30.41 "Hg (Apr 21, 2:01 AM)
Low38 °F (Apr 23, 5:54 AM)27% (Apr 15, 12:54 PM)29.57 "Hg (Apr 25, 4:54 PM)
Average57 °F62%30.05 "Hg
* Reported Apr 14 6:54 PM — Apr 29 6:54 PM, Rockford, Weather by CustomWeather, © 2016

Note: Actual official high and low records may vary slightly from our data, if they occured in-between our weather recording intervals... More about our weather records

Advertising

Rockford Weather History for the Previous 24 Hours

Scroll right to see more
 ConditionsComfort  
Time TempWeatherWind HumidityBarometerVisibility
6:54 PM
Fri, Apr 29
49 °FOvercast.3 mph66%30.15 "Hg10 mi
5:54 PM48 °FOvercast.3 mph71%30.15 "Hg10 mi
4:54 PM49 °FOvercast.10 mph69%30.14 "Hg10 mi
3:54 PM49 °FOvercast.6 mph71%30.15 "Hg10 mi
2:54 PM48 °FOvercast.8 mph71%30.15 "Hg10 mi
1:54 PM48 °FOvercast.7 mph68%30.15 "Hg10 mi
12:54 PM47 °FOvercast.3 mph71%30.15 "Hg10 mi
11:54 AM48 °FOvercast.15 mph68%30.11 "Hg10 mi
10:54 AM46 °FOvercast.8 mph73%30.16 "Hg10 mi
9:54 AM46 °FOvercast.12 mph73%30.13 "Hg10 mi
8:54 AM44 °FOvercast.14 mph79%30.10 "Hg10 mi
7:54 AM43 °FLow clouds.12 mph86%30.12 "Hg8 mi
6:54 AM43 °FOvercast.6 mph86%30.13 "Hg8 mi
5:54 AM42 °FFog.8 mph89%30.11 "Hg6 mi
4:54 AM42 °FMostly cloudy.7 mph89%30.08 "Hg7 mi
3:54 AM42 °FFog.7 mph89%30.08 "Hg6 mi
2:54 AM42 °FDrizzle. Fog.7 mph92%30.07 "Hg6 mi
2:02 AM42 °FDrizzle. Fog.5 mph89%30.06 "Hg2 mi
1:54 AM43 °FMostly cloudy.5 mph86%30.07 "Hg8 mi
12:54 AM42 °FLow clouds.6 mph89%30.06 "Hg8 mi
11:54 PM
Thu, Apr 28
43 °FMostly cloudy.7 mph89%30.06 "Hg7 mi
10:54 PM43 °FDrizzle. Fog.9 mph86%30.05 "Hg5 mi
9:54 PM43 °FLow clouds.7 mph89%30.05 "Hg10 mi
8:54 PM43 °FLow clouds.9 mph89%30.03 "Hg10 mi
Weather by CustomWeather, © 2016

See weather overviewHow to use our weather pages